KINEIS-5E

Last updated on Mon Sep 21 2026 00:02:54 GMT+0000 (Coordinated Universal Time)

1 62083U 24219C 26263.59084307 .00000365 00000+0 65423-4 0 9999 2 62083 97.9112 59.9158 0005545 331.6606 28.4299 14.72292898 97801
UTC large
Height (km)
Speed (km/s)
/
Latitude / Longitude
Inclination (degrees)
Orbital Period (minutes)
Azimuth
Elevation
Range (km)
Doppler Factor

Next 0 passes for location: London (51.5072 / 0.1276)

No passes found over London.
KINEIS-5E